Weather History for KHUM - February, 2013

Change the Weather History Date:

Friday, February 8, 2013

  Actual Average Record
Temperature  
Mean Temperature 59 °F -  
Max Temperature 66 °F 60 °F 84 °F (1957)
Min Temperature 52 °F 40 °F 25 °F (1954)
Degree Days  
Heating Degree Days 6    
Growing Degree Days 9 (Base 50)    
Moisture  
Dew Point 57 °F    
Average Humidity 95    
Maximum Humidity 100    
Minimum Humidity 82    
Precipitation  
Precipitation 0.00 in - - ()
Sea Level Pressure  
Sea Level Pressure 30.07 in    
Wind  
Wind Speed 3 mph (NW)    
Max Wind Speed 13 mph    
Max Gust Speed 17 mph    
Visibility 5 miles    
Events Fog    
Averages and records for this station are not official NWS values.
T = Trace of Precipitation, MM = Missing Value Source: NWS Daily Summary

Daily Weather History Graph

Daily Weather History Graph

Search for Another Location

Airport or City:

Trip Planner

Search our weather history database for the weather conditions in past years. The results will help you decide how hot, cold, wet, or windy it might be!

Date:

Astronomy

Feb. 08, 2013 Rise Set
Actual Time 6:47 AM CST 5:46 PM CST
Civil Twilight 6:22 AM CST 6:11 PM CST
Nautical Twilight 5:54 AM CST 6:39 PM CST
Astronomical Twilight 5:26 AM CST 7:07 PM CST
Moon 5:12 AM CST (2/8) 4:22 PM CST (2/8)
Length of Visible Light 11h 48m
Length of Day
10h 59m
Waning Crescent, 3% of the Moon is Illuminated
Feb 8
Waning Crescent
Feb 10
New
Feb 17
First Quarter
Feb 25
Full
Mar 4
Last Quarter

Hourly Weather History & Observations

Time (CST) Temp. Dew Point Humidity Pressure Visibility Wind Dir Wind Speed Gust Speed Precip Events Conditions
12:15 AM 54.7 °F 54.7 °F 100% 29.97 in 1.0 mi Calm Calm - N/A   Mist
12:35 AM 54.1 °F 54.1 °F 100% 29.97 in 0.8 mi Calm Calm - N/A   Mist
12:55 AM 54.0 °F 54.0 °F 100% 29.97 in 0.5 mi Calm Calm - N/A Fog Fog
1:15 AM 54.1 °F 54.1 °F 100% 29.98 in 0.2 mi Calm Calm - N/A Fog Fog
1:35 AM 53.6 °F 53.6 °F 100% 29.98 in 0.2 mi Calm Calm - N/A Fog Fog
1:55 AM 53.6 °F 53.6 °F 100% 29.98 in 0.2 mi Calm Calm - N/A Fog Fog
2:15 AM 54.0 °F 54.0 °F 100% 29.98 in 0.2 mi Calm Calm - N/A Fog Fog
2:55 AM 52.5 °F 52.5 °F 100% 29.97 in 0.2 mi Calm Calm - N/A Fog Fog
3:15 AM 52.7 °F 52.7 °F 100% 29.98 in 0.2 mi Calm Calm - N/A Fog Fog
3:55 AM 52.9 °F 52.9 °F 100% 29.99 in 0.2 mi Calm Calm - N/A Fog Fog
4:15 AM 53.8 °F 53.8 °F 100% 30.00 in 2.0 mi WNW 3.5 mph - N/A   Mostly Cloudy
4:35 AM 56.3 °F 56.3 °F 100% 30.00 in 2.0 mi Calm Calm - N/A   Mostly Cloudy
4:55 AM 54.7 °F 54.7 °F 100% 30.01 in 0.5 mi Calm Calm - N/A Fog Fog
5:50 AM 57.2 °F 57.2 °F 100% 30.04 in 5.0 mi SSW 4.6 mph - N/A   Overcast
6:50 AM 57.2 °F 57.2 °F 100% 30.04 in 2.0 mi SSW 4.6 mph - N/A   Overcast
7:30 AM 59.0 °F 59.0 °F 100% 30.05 in 0.2 mi SSW 6.9 mph - N/A Fog Fog
7:50 AM 59.0 °F 59.0 °F 100% 30.07 in 0.8 mi WSW 4.6 mph - N/A Fog Fog
8:50 AM 60.8 °F 60.8 °F 100% 30.08 in 6.0 mi West 4.6 mph - N/A   Overcast
9:50 AM 62.6 °F 62.6 °F 100% 30.11 in 6.0 mi WNW 4.6 mph - N/A   Overcast
10:10 AM 62.6 °F 62.6 °F 100% 30.11 in 6.0 mi WNW 4.6 mph - N/A   Mostly Cloudy
10:50 AM 66.2 °F 62.6 °F 88% 30.10 in 7.0 mi NW 6.9 mph - N/A   Mostly Cloudy
11:48 AM 66.2 °F 62.6 °F 88% 30.11 in 6.0 mi WNW 6.9 mph - N/A   Overcast
12:55 PM 64.4 °F 62.6 °F 94% 30.08 in 6.0 mi WNW 9.2 mph - N/A   Overcast
1:55 PM 64.4 °F 60.8 °F 88% 30.07 in 6.0 mi NW 11.5 mph - N/A   Overcast
2:50 PM 64.4 °F 60.8 °F 88% 30.08 in 7.0 mi NNW 4.6 mph - N/A   Mostly Cloudy
4:48 PM 64.4 °F 60.8 °F 88% 30.08 in 7.0 mi WNW 3.5 mph - N/A   Scattered Clouds
5:48 PM 62.6 °F 57.2 °F 82% 30.08 in 7.0 mi WNW 3.5 mph - N/A   Clear
6:15 PM 61.7 °F 58.3 °F 89% 30.07 in 10.0 mi Calm Calm - N/A   Clear
6:35 PM 60.1 °F 58.3 °F 94% 30.09 in 7.0 mi Calm Calm - N/A   Clear
6:48 PM 60.8 °F 59.0 °F 94% 30.10 in 7.0 mi WNW 3.5 mph - N/A   Clear
6:55 PM 59.9 °F 58.8 °F 96% 30.09 in 7.0 mi Calm Calm - N/A   Clear
7:15 PM 58.3 °F 58.3 °F 100% 30.10 in 7.0 mi Calm Calm - N/A   Clear
7:35 PM 58.3 °F 58.3 °F 100% 30.10 in 7.0 mi Calm Calm - N/A   Mostly Cloudy
7:55 PM 59.2 °F 58.1 °F 96% 30.11 in 7.0 mi Calm Calm - N/A   Overcast
8:15 PM 61.0 °F 57.6 °F 88% 30.12 in 7.0 mi North 11.5 mph - N/A   Mostly Cloudy
8:35 PM 59.9 °F 56.8 °F 90% 30.13 in 7.0 mi North 12.7 mph 17.3 mph N/A   Scattered Clouds
9:15 PM 59.4 °F 55.8 °F 88% 30.14 in 7.0 mi North 12.7 mph - N/A   Overcast
9:35 PM 58.1 °F 54.9 °F 89% 30.14 in 7.0 mi North 10.4 mph - N/A   Mostly Cloudy
9:55 PM 57.4 °F 54.7 °F 91% 30.14 in 7.0 mi North 8.1 mph - N/A   Overcast
10:15 PM 56.3 °F 53.8 °F 91% 30.15 in 10.0 mi North 5.8 mph - N/A   Scattered Clouds
10:35 PM 56.3 °F 53.6 °F 91% 30.15 in 10.0 mi North 8.1 mph - N/A   Clear
10:55 PM 55.0 °F 53.1 °F 93% 30.15 in 7.0 mi North 9.2 mph - N/A   Scattered Clouds
11:15 PM 54.3 °F 52.7 °F 94% 30.15 in 10.0 mi North 8.1 mph - N/A   Clear
11:35 PM 54.7 °F 52.7 °F 93% 30.15 in 7.0 mi North 6.9 mph - N/A   Clear
11:55 PM 53.8 °F 52.0 °F 94% 30.16 in 7.0 mi North 6.9 mph - N/A   Clear